Preview of NWS' New Version of Forecast
This preview is not operational and should not be used for support decisions.

Regional Weather Roundup (RWR)

Issued by National Weather Service (NWS)

                            
000
ASUS42 KTBW 150417
RWRFL 
FLORIDA REGIONAL WEATHER ROUNDUP
NATIONAL WEATHER SERVICE TAMPA BAY RUSKIN FL
1200 AM EDT SUN SEP 15 2019

NOTE: "FAIR" INDICATES FEW OR NO CLOUDS BELOW 12,000 FEET WITH NO
SIGNIFICANT WEATHER AND/OR OBSTRUCTIONS TO VISIBILITY.

FLZ001>010-012>015-112-114-115-150500-
PANHANDLE FLORIDA
  
CITY           SKY/WX    TMP DP  RH WIND       PRES   REMARKS
PENSACOLA      FAIR      83  71  67 NE5       30.06S                  
PENSACOLA NAS  FAIR      83  72  69 NE8       30.05S                  
MILTON NAS     FAIR      78  32  18 NE5       30.07S                  
CRESTVIEW      FAIR      78  69  73 NE3       30.09S                  
DUKE FIELD     FAIR      78  69  73 NE5       30.07S                  
VALPARAISO     FAIR      83  67  58 NE8       30.06S                  
MARY ESTHER    PTCLDY    82  68  63 CALM      30.04F                  
TRI COUNTY     FAIR      79  69  71 N3        30.09S                  
PANAMA CITY    FAIR      81  68  64 NE8       30.05S                  
TYNDALL AFB    FAIR      81  69  67 E8        30.05S                  
APALACHICOLA   FAIR      81  69  67 NE9       30.04S                  

STATION/POSITION SKY/WX   TEMP    WIND        PRES    WAVE   SWELL
                          AIR SEA DIR/SP/G            HT/PER HT/PER
                          (F)     (DEG/KT/KT) (MB)    (FT/S) (FT/S)
30.1N   87.6W              86 86   30/ 10/ 12 1017.4S   4/ 7   3/ 7
29.2N   88.2W              85      80/ 10/ 12 1016.9F   5/ 7   5/ 7
28.8N   86.0W                 85   70/ 17/ 21 1015.9S   4/ 6   2/ 8
PANAMA CITY BEAC           84 86   80/  7/ 15 1018.0S
TOWER C                    84      70/ 25/ 27 1016.8F
28.5N   84.5W              85      60/ 19/ 25 1016.6R   5/ 6

$$
FLZ011-016>038-118-127-128-134-139-239-150500-
NORTH FLORIDA
  
CITY           SKY/WX    TMP DP  RH WIND       PRES   REMARKS
MARIANNA       FAIR      79  71  76 E5        30.07S                  
TALLAHASSEE    FAIR      81  71  71 E9        30.07F                  
PERRY          FAIR      77  69  77 NE3       30.07F                  
LIVE OAK       PTCLDY    75  72  88 CALM      30.06F                  
CROSS CITY       N/A     79  72  78 NE7       30.04S                  
LAKE CITY      FAIR      73  70  88 NE6       30.06F                  
GAINESVILLE    FAIR      77  73  87 N6        30.06F                  
WILLISTON      FAIR      77  74  88 NE6       30.03S                  
PALATKA        MOCLDY    75  73  94 N7        30.03F                  
MAYPORT NAS    FAIR      83  75  77 NE21      30.04F                  
JACKSONVILLE   MOCLDY    81  73  76 NE12      30.04F                  
JAX NAS        MOCLDY    81  75  82 NE12      30.05F                  
JAX CECIL      CLOUDY    77  75  94 CALM      30.04F                  
FERNANDINA BEA MOCLDY    82  76  81 NE17G23   30.05F                  
ST AUGUSTINE   FAIR     N/A N/A N/A NE20      30.03F                  
PALM COAST     MOCLDY    76  74  92 NE3       30.01S                  

STATION/POSITION SKY/WX   TEMP    WIND        PRES    WAVE   SWELL
                          AIR SEA DIR/SP/G            HT/PER HT/PER
                          (F)     (DEG/KT/KT) (MB)    (FT/S) (FT/S)
SHELL POINT      NOT AVBL
KEATON BEACH               78      40/  6/  9 1017.7F
CEDAR KEY                  79      40/  6/  8 1016.9R
FERNANDINA                 87 84   40/  6/ 13 1018.6F
30.7N   81.3W                 83                N/A     7/ 8
MAYPORT                    83 83   50/ 16/ 22 1018.0F
31.4N   80.9W              82 83   60/ 17/ 21 1017.8F   6/ 8
ST AUGUSTINE               83 83   40/ 19/ 22 1016.5F

$$
FLZ040-043>046-052-053-057-058-063-144-150500-
INTERIOR CENTRAL FLORIDA
  
CITY           SKY/WX    TMP DP  RH WIND       PRES   REMARKS
OCALA          FAIR      78  75  90 VRB6      30.03F                  
LEESBURG       MOCLDY    78  75  90 N7        30.02S                  
SANFORD        FAIR      78  75  90 N6        29.99F                  
ORLANDO EXEC   FAIR      78  75  90 CALM      29.99F                  
ORLANDO INTL   CLOUDY    78  73  84 NE6       29.99F                  
KISSIMMEE      FAIR      79  75  87 NE5       30.00S                  
WINTER HAVEN   FAIR      79  76  90 N5        30.00F                  
LAKELAND       CLEAR     77  75  94 NE6       30.00S                  
BARTOW         FAIR      79  77  94 N6        29.98F                  
SEBRING        FAIR      77  75  92 CALM      29.98F                  
OKEECHOBEE       N/A     73  73 100 CALM      29.96F                  

$$
FLZ041-047-054-059-064-141-147-150500-
EAST CENTRAL FLORIDA
  
CITY           SKY/WX    TMP DP  RH WIND       PRES   REMARKS
DAYTONA BEACH  RAIN      81  75  83 NE29G37   30.00F FOG              
DELAND         FAIR      75  73  94 N5        30.00S                  
JFK SPACE CTR  PTCLDY    78  76  91 NE5       29.96F                  
CAPE CANAVERAL FAIR      80  80  99 NE9       29.95F                  
PATRICK AFB    FAIR      80  79  98 CALM      29.96S                  
MELBOURNE      FAIR      77  72  84 N6        29.95F                  
VERO BEACH     FAIR      82  75  79 N6        29.94F                  
FT PIERCE      FAIR      75  72  90 W3        29.95S                  
STUART         FAIR      79  73  83 W6        29.95F                  

STATION/POSITION SKY/WX   TEMP    WIND        PRES    WAVE   SWELL
                          AIR SEA DIR/SP/G            HT/PER HT/PER
                          (F)     (DEG/KT/KT) (MB)    (FT/S) (FT/S)
28.5N   80.2W              83 85   30/ 17/ 35 1014.6S   8/ 9   5/ 9
28.9N   78.5W              80 82              1012.8R  10/ 9   5/ 9
TRIDENT PIER               79 84   10/  3/  5 1016.2S
28.4N   80.5W                 83                N/A     4/ 8   2/11
27.5N   80.2W                 83                N/A     6/ 9   2/11

$$
FLZ050-056-061-142-242-148-248-149-249-151-251-155-255-
160-260-150500-
WEST CENTRAL FLORIDA
  
CITY           SKY/WX    TMP DP  RH WIND       PRES   REMARKS
CRYSTAL RIVER  FAIR      77  73  88 NE6       30.01S                  
INVERNESS      FAIR      77  77 100 CALM      30.02R                  
BROOKSVILLE    FAIR      77  75  93 NE5       30.02S                  
CLEARWATER AIR FAIR      79  73  83 NE7       29.99F                  
ST PETE CLEARW FAIR      82  74  76 NE9       29.99S                  
TAMPA INTL     CLOUDY    81  74  79 NE8       30.00S                  
TAMPA EXEC     FAIR      77  77 100 CALM      30.01S                  
PLANT CITY     FAIR      77  77 100 N5        30.02S                  
MACDILL AFB    FAIR      79  74  86 E9        29.99S                  
PETER O KNIGHT FAIR      81  81 100 NE8       30.00R                  
ST PETERSBURG  FAIR      82  76  81 NE16      29.98S                  
SARASOTA       FAIR      82  75  79 NE5       29.97S                  
VENICE         DRIZZLE   79  77  94 NE3       29.98F                  

STATION/POSITION SKY/WX   TEMP    WIND        PRES    WAVE   SWELL
                          AIR SEA DIR/SP/G            HT/PER HT/PER
                          (F)     (DEG/KT/KT) (MB)    (FT/S) (FT/S)
27.3N   84.2W                 85                N/A     5/ 5
CLEARWATER BEACH           80 86   40/  8/ 12 1015.9S
MIDDLE TAMPA BAY           80      80/ 14/ 17 1015.8S
VENICE                     80 86   30/  4/  5 1015.0F

$$
FLZ066-069-070-075>078-162-262-165-265-150500-
SOUTHWEST FLORIDA AND KEYS
  
CITY           SKY/WX    TMP DP  RH WIND       PRES   REMARKS
PUNTA GORDA    MOCLDY    78  78 100 NE8       29.98F                  
FT MYERS       FAIR      78  76  93 E6        29.95F                  
SOUTHWEST INTL FAIR      78  77  96 E3        29.95F                  
NAPLES         FAIR      79  77  94 E5        29.94F                  
MARCO ISLAND   FAIR      77  76  96 NE6       29.95F                  
IMMOKALEE      MOCLDY    77  77 100 CALM      29.93F                  
MARATHON       FAIR      83  78  85 CALM      29.93F                  
KEY WEST NAS   FAIR      81  78  91 CALM      29.94S                  
KEY WEST INTL  FAIR      81  78  91 CALM      29.94F                  

STATION/POSITION SKY/WX   TEMP    WIND        PRES    WAVE   SWELL
                          AIR SEA DIR/SP/G            HT/PER HT/PER
                          (F)     (DEG/KT/KT) (MB)    (FT/S) (FT/S)
NAPLES                     79 85   40/  3/  4 1014.3F
26.0N   85.6W              84 85   90/ 16/ 21 1014.5R   7/ 7
DRY TORTUGAS               84     170/  4/  4 1013.7F
SOMBRERO KEY               84     200/  1/  3 1014.0F
LONG KEY                   84                 1012.8

$$
FLZ067-068-071>074-168-172>174-150500-
SOUTHEAST FLORIDA 
  
CITY           SKY/WX    TMP DP  RH WIND       PRES   REMARKS
W PALM BEACH   MOCLDY    79  75  87 NW7       29.93F                  
FT LAUDER-EXEC FAIR      81  75  82 NW5       29.94S                  
FT LAUDERDALE  MOCLDY    81  75  82 NW6       29.93S                  
POMPANO BEACH  FAIR      81  75  82 W7        29.94S                  
PEMBROKE PINES FAIR      83  74  74 N7        29.95S                  
OPA LOCKA      LGT RAIN  80  78  94 NW6       29.94S                  
MIAMI          CLOUDY    80  77  90 W5        29.94S                  
WEST KENDALL   FAIR      79  79 100 NW5       29.94S                  
HOMESTEAD      CLOUDY    79  78  96 W3        29.93S                  

STATION/POSITION SKY/WX   TEMP    WIND        PRES    WAVE   SWELL
                          AIR SEA DIR/SP/G            HT/PER HT/PER
                          (F)     (DEG/KT/KT) (MB)    (FT/S) (FT/S)
VIRGINIA KEY               81 87  280/  3/  6 1013.4R
LAKE WORTH                 81 85  310/  5/  6 1014.8F
FOWEY ROCKS                82 85  310/  7/  8 1013.9S
SETTLEMENT POINT           83     310/ 16/ 18 1011.9F

$$